Volver al catálogo

STARLINK-4589

ActivoComunicacionesVLEO
NORAD 53746·PAYLOAD·🇺🇸 United States

Lanzado Sep 5, 2022 desde Cape Canaveral Space Force Station

Loading…

Próximos Pases (próximas 24 horas)

TLE

ActualizadoSource: CelesTrak SupGP

Época: Sep 14, 2026, 20:54 UTC

1 53746C 22107AY  26257.87131944 -.00043946  00000+0 -12986-2 0  2578
2 53746  53.1592 120.3862 0001291  83.7481 173.3585 15.34406037    14

Sigue STARLINK-4589 en tiempo real con AllMySat

Download on the App Store